Theta_e
284 284 284 284 284 284 283 283 283 283 283 282 282 281 281 280 280 279 279 279 279 278 278 278 278 278 277 276 277 277 276 276 273 276 277 278 278 278 279 279 280 280 280
284 284 284 284 284 283 283 283 283 282 282 282 281 281 281 280 279 279 279 279 278 278 278 278 277 279 277 277 276 276 276 276 275 274 276 277 277 277 277 277 279 281 279
284 283 283 283 283 283 283 283 283 282 281 281 281 280 280 280 279 279 279 279 278 278 278 278 278 277 277 277 276 276 276 278 276 275 274 276 276 277 276 277 277 276 277
283 283 283 283 283 283 283 282 281 281 280 280 280 279 279 279 280 280 279 278 278 278 279 278 278 278 277 277 277 276 277 275 275 274 274 273 274 276 275 273 272 274 273
282 282 282 283 284 283 282 282 281 281 281 281 279 278 278 279 280 279 279 278 278 278 279 280 279 278 281 280 276 275 275 274 274 274 273 272 270 272 271 272 270 271 271
282 281 282 282 282 281 281 281 280 280 279 279 278 278 277 280 284 284 280 278 279 278 277 276 276 276 278 279 278 278 277 273 273 272 271 271 271 271 271 270 270 266 264
281 281 281 281 281 281 281 280 280 279 279 278 277 277 276 278 285 284 282 278 277 275 275 275 274 275 274 274 276 275 275 276 276 274 270 271 269 271 271 267 265 264 263
279 280 280 280 280 280 280 279 278 278 277 276 274 275 275 279 285 284 279 273 271 270 270 270 270 269 271 272 272 270 270 272 273 274 272 272 272 271 268 266 263 261 261
279 279 280 280 279 279 278 276 275 275 274 274 275 276 278 281 284 281 276 272 270 268 268 268 268 267 274 276 270 266 269 269 272 272 271 271 270 269 268 262 258 257 255
276 277 277 279 278 276 275 275 276 274 274 276 276 276 277 278 280 278 273 271 268 267 265 267 274 270 274 276 271 269 264 263 264 261 260 261 262 261 265 262 259 255 255
273 274 275 275 275 274 274 274 273 273 273 272 272 272 273 275 276 277 275 269 267 267 266 266 267 274 275 276 272 269 268 262 258 253 252 255 257 258 258 257 258 257 255
271 271 271 272 273 272 271 271 271 271 270 269 269 269 269 272 276 277 276 274 272 268 267 268 267 274 273 271 269 270 267 261 255 254 252 251 252 255 256 256 255 255 256
269 269 269 270 270 271 270 269 269 269 268 267 267 266 266 268 271 275 274 273 272 269 270 271 271 269 267 263 265 265 259 255 253 250 250 250 249 252 250 251 252 253 254
267 267 268 268 268 269 269 269 268 267 266 266 265 265 265 266 268 269 269 269 270 265 264 263 264 263 263 261 258 258 256 255 253 251 252 253 250 252 252 253 253 253 252
267 267 267 268 268 267 268 268 268 268 268 266 266 266 266 266 269 271 270 268 265 263 258 258 257 256 255 254 254 254 254 253 252 252 251 251 252 252 252 252 252 251 250
266 267 267 267 268 268 268 269 274 273 273 272 272 269 269 271 271 271 269 269 266 262 254 253 253 253 252 252 251 251 251 251 251 251 251 250 250 250 250 251 251 251 250
266 267 268 268 269 268 269 268 268 271 273 272 272 271 270 270 270 268 265 265 262 256 251 251 251 251 250 250 250 249 249 250 250 250 250 249 250 249 249 249 250 250 249
263 263 263 263 264 263 262 261 262 260 259 260 267 267 269 267 266 264 261 257 250 252 250 247 246 245 245 245 246 247 248 248 248 248 248 248 248 248 248 248 249 249 249
261 261 261 260 260 260 259 258 258 257 256 255 256 258 259 263 262 260 257 250 248 247 245 244 243 241 242 241 242 243 243 245 247 246 246 246 247 247 247 248 248 249 250
259 260 259 259 258 258 257 256 256 255 254 254 254 253 252 251 249 249 249 248 246 246 246 241 240 238 237 238 240 240 241 242 244 243 245 246 247 247 247 247 248 248 249
258 257 257 257 256 256 255 255 254 254 253 252 252 254 255 249 248 246 245 245 244 244 241 239 240 238 238 238 239 240 240 243 244 243 245 245 246 245 247 247 248 248 249
257 256 256 255 255 254 254 254 253 252 251 250 250 252 255 248 247 245 244 244 243 239 238 237 238 240 241 240 242 241 241 243 243 243 244 245 245 246 246 246 247 248 248
255 254 254 254 253 253 252 252 251 251 250 249 249 248 247 244 243 244 243 241 238 238 238 237 238 241 241 242 241 241 242 244 244 243 244 245 245 246 246 246 247 247 248
255 254 253 253 252 252 251 250 250 250 249 246 245 244 245 244 242 242 242 239 238 239 238 239 239 241 242 242 242 242 243 244 245 245 244 245 246 246 247 247 248 248 249
253 253 252 251 251 250 249 249 248 246 245 245 244 243 241 240 238 239 238 237 238 238 240 240 240 241 242 242 242 242 244 247 245 246 246 246 246 246 246 247 248 249 252
252 251 251 250 249 248 247 246 245 245 243 242 241 238 237 237 237 237 238 237 239 239 240 241 242 242 242 243 243 245 248 252 251 251 250 249 248 250 252 253 254 254 254
Wind_Speed
13 12 12 11 12 11 11 11 12 11 10 11 10 9 8 8 7 7 6 7 7 6 5 6 5 4 3 3 3 2 2 2 2 3 2 1 2 4 5 4 5 5 5
13 12 12 11 11 12 11 11 11 11 9 10 9 8 8 7 7 8 8 7 7 7 6 6 5 3 4 3 2 3 2 1 2 3 2 2 2 4 4 6 6 6 5
11 12 11 12 13 13 12 12 11 11 10 9 10 10 9 8 8 6 7 7 6 6 6 6 5 5 4 2 2 3 2 1 1 1 3 1 3 3 6 5 6 4 7
12 12 13 13 14 13 12 12 12 11 11 10 8 7 7 7 7 7 7 6 6 5 5 5 5 5 5 4 3 3 3 2 2 1 3 3 2 5 4 5 7 7 9
12 12 13 12 11 11 12 12 11 11 11 10 9 7 7 7 5 6 7 6 7 7 6 6 5 5 9 6 3 2 2 2 2 3 4 4 3 5 6 6 10 9 7
12 12 10 9 10 11 11 11 11 10 9 10 9 10 8 5 14 14 10 7 7 8 8 7 7 7 8 8 7 6 5 2 2 3 2 5 6 8 8 8 7 10 10
10 8 10 11 11 11 11 12 11 11 10 10 9 9 7 5 16 15 14 7 8 7 7 7 6 4 5 4 6 6 6 7 6 4 2 5 8 8 8 9 10 11 12
8 9 10 11 11 10 11 11 10 9 10 9 8 8 8 5 15 16 17 9 8 8 7 6 6 3 1 2 2 1 3 3 3 5 5 6 7 9 10 10 10 10 9
8 9 9 10 11 11 11 11 10 12 10 9 8 9 10 10 18 18 15 9 9 7 5 5 4 3 3 6 1 3 1 3 8 13 14 15 16 18 17 8 6 9 12
6 6 7 11 13 13 13 13 9 12 12 11 11 10 13 12 17 16 12 7 8 5 4 5 6 1 5 7 6 2 2 4 7 6 6 8 9 8 16 8 7 9 10
7 9 10 10 12 13 13 13 13 14 14 13 13 11 11 11 13 17 16 7 5 5 4 2 2 6 8 12 13 5 7 7 7 2 3 3 4 5 5 3 6 7 10
9 12 12 11 10 10 16 13 14 15 16 14 14 11 8 7 15 17 17 15 11 5 2 1 3 10 14 15 11 16 17 12 5 6 3 3 4 6 7 8 9 9 9
12 12 12 12 11 11 14 15 13 12 12 11 10 10 8 7 8 17 15 12 11 4 3 9 14 13 13 11 15 15 8 5 4 4 4 4 3 6 7 5 6 8 11
13 12 11 13 13 11 9 9 11 10 11 10 10 9 8 7 6 4 4 4 13 10 10 8 9 11 12 9 7 8 5 5 5 4 6 7 5 6 7 6 9 10 11
12 11 12 11 12 12 10 8 9 8 9 11 9 9 8 7 6 7 6 8 7 8 7 5 6 6 5 5 5 5 5 6 5 6 6 7 8 8 8 7 8 9 9
12 9 9 10 10 11 12 12 22 22 25 24 21 13 8 13 12 15 13 13 14 10 5 4 5 5 5 5 5 6 4 5 5 7 6 7 8 9 10 10 8 8 11
11 10 9 10 10 11 11 13 15 19 27 23 21 18 15 12 15 17 13 15 14 10 6 5 4 5 5 4 3 4 5 6 7 5 6 7 8 8 10 10 10 10 12
12 14 10 9 10 10 10 10 9 10 10 8 14 12 17 15 14 14 12 10 5 7 4 3 1 1 2 2 3 4 5 6 5 6 6 7 7 8 10 10 10 11 12
10 9 9 10 10 11 10 9 8 8 8 7 6 10 12 15 14 14 15 5 3 2 1 1 1 1 2 2 3 3 4 5 6 6 6 7 7 7 10 9 11 16 16
11 16 12 10 9 9 8 9 8 7 7 6 5 5 3 4 4 4 4 3 2 1 1 1 2 2 2 3 4 3 4 4 5 4 6 7 7 7 10 11 11 13 13
9 10 14 10 9 8 7 7 7 6 6 5 4 4 11 4 3 2 1 1 1 2 2 2 3 3 3 3 3 4 4 6 6 6 6 7 8 9 9 10 12 12 13
10 9 9 9 8 8 7 7 6 6 6 5 3 6 11 3 3 1 1 2 2 2 3 3 3 4 4 4 4 5 5 7 6 5 7 8 8 9 10 11 12 12 13
10 10 9 8 8 10 8 6 6 6 5 4 4 3 3 2 1 2 2 3 3 3 3 2 3 5 4 5 5 5 6 7 7 5 8 9 9 10 10 12 13 13 13
9 9 9 7 6 6 6 6 6 7 5 4 3 2 1 1 2 3 3 3 3 4 3 3 4 6 7 6 5 5 7 8 7 7 9 10 11 12 11 12 13 16 16
8 8 7 7 6 6 6 5 5 4 3 2 2 1 2 2 3 3 4 4 4 4 5 5 5 7 9 10 10 11 11 14 11 11 8 11 15 17 14 13 15 15 19
7 7 6 6 5 5 4 4 3 3 2 1 1 1 2 3 4 4 4 4 4 5 7 5 7 10 11 10 10 12 14 15 14 16 12 11 12 13 13 15 21 15 20
Wind_Direction
183 181 180 179 169 161 169 172 172 167 168 169 168 160 159 155 151 136 139 143 136 137 135 138 135 137 119 104 95 94 106 113 170 297 251 258 313 340 315 305 303 292 285
184 180 180 167 167 164 173 173 168 170 167 165 157 152 155 156 153 149 152 151 145 146 149 136 143 132 115 103 95 99 100 114 160 263 297 312 281 308 294 305 307 304 314
175 177 176 174 173 177 173 166 165 159 159 157 156 159 159 159 154 150 147 151 145 145 146 144 146 137 115 99 95 95 74 49 15 289 295 291 278 307 317 310 306 329 322
174 179 181 181 183 176 167 165 160 162 157 156 157 149 148 147 151 149 146 138 135 135 130 126 123 122 122 115 93 71 57 18 346 269 276 278 286 317 301 311 316 306 303
177 179 185 182 181 167 161 162 159 158 160 156 139 130 136 142 149 141 139 134 130 117 105 102 92 105 110 99 99 78 57 11 339 326 314 313 304 322 336 316 302 305 311
177 183 171 163 158 164 156 155 149 145 142 142 143 144 141 142 165 157 137 130 121 120 113 93 88 66 78 81 67 51 37 26 320 308 302 316 323 323 314 308 325 321 311
169 165 160 159 164 163 152 149 150 147 140 140 135 134 132 130 156 149 133 107 106 100 102 101 88 78 75 71 60 34 11 346 346 357 318 321 312 316 338 336 325 309 299
155 157 158 160 155 145 146 147 135 133 132 130 123 122 121 131 146 130 112 94 91 85 89 96 101 83 356 179 168 333 354 14 340 318 342 347 342 343 348 325 323 301 293
154 155 155 151 139 136 130 126 120 116 112 112 117 118 110 104 116 121 106 100 96 91 89 90 98 80 352 351 104 48 75 307 6 25 0 350 344 345 334 339 328 323 311
130 129 125 136 136 132 131 127 117 112 111 113 101 98 100 103 106 109 106 108 102 96 62 47 70 66 359 331 79 83 300 44 13 1 350 350 348 334 346 341 327 315 314
84 96 99 111 118 118 114 115 115 111 107 103 96 87 89 102 112 113 109 92 104 98 90 47 347 357 348 17 34 345 4 60 2 10 319 318 328 331 326 313 308 302 300
83 89 94 103 110 114 114 112 114 117 112 109 103 91 72 91 116 117 113 105 98 95 91 343 301 22 27 20 12 358 13 11 7 358 345 323 323 330 325 317 296 285 272
85 89 92 93 98 107 115 117 114 113 113 112 107 100 84 64 62 80 89 79 86 89 56 55 45 35 31 30 13 14 21 7 352 352 330 318 309 299 296 287 283 276 273
91 92 95 98 99 95 97 106 113 117 116 115 114 108 101 90 89 94 92 70 75 66 58 49 49 48 41 42 24 14 4 360 347 332 329 319 301 309 314 311 310 313 307
96 97 98 97 98 98 90 99 102 97 116 120 113 112 116 109 105 101 117 110 95 80 79 59 51 38 32 20 11 2 356 350 346 335 325 319 319 319 313 314 307 307 294
103 102 106 109 108 108 111 110 105 110 111 109 109 105 102 99 98 87 66 66 60 72 60 64 54 42 26 10 359 346 337 333 336 329 321 319 317 315 313 314 306 303 300
103 109 109 109 110 112 111 113 117 106 102 99 99 100 102 102 80 79 71 68 72 66 80 64 56 34 13 351 330 326 324 327 320 314 310 310 310 308 312 308 307 303 299
87 87 90 91 91 90 89 91 93 98 97 79 78 90 84 78 77 73 81 73 55 47 63 70 55 356 275 274 315 321 320 316 311 307 308 304 302 303 307 303 301 299 300
94 89 88 86 86 91 90 86 85 89 91 90 76 55 38 78 72 71 68 81 86 70 60 48 238 284 294 300 293 291 283 296 303 303 297 298 298 300 299 294 294 297 298
89 94 93 94 92 89 91 97 96 95 95 92 84 86 52 62 62 57 52 59 72 78 23 293 289 279 279 279 290 289 295 292 291 276 287 290 293 290 291 295 294 297 298
97 91 94 86 85 89 92 94 99 102 101 94 89 149 105 98 97 84 61 33 33 355 309 288 301 293 277 276 282 286 284 287 278 278 289 292 294 293 287 285 288 291 291
96 94 92 95 98 96 96 96 96 97 97 96 64 34 85 75 74 74 23 355 317 260 244 244 271 261 266 269 282 274 270 281 281 270 281 287 289 287 288 287 290 290 292
94 97 94 92 95 102 96 93 99 102 101 90 82 73 59 59 46 7 327 296 282 288 277 256 272 291 270 261 245 241 261 274 273 261 283 288 287 285 284 286 290 293 293
91 95 99 98 97 97 99 99 96 93 95 93 88 90 59 25 340 315 295 288 289 284 272 279 265 266 279 274 255 245 247 258 260 263 254 272 280 285 282 282 285 287 285
91 94 94 97 99 99 103 97 95 96 103 106 96 47 356 329 301 285 284 287 291 295 289 275 262 266 272 274 275 273 268 277 268 263 264 260 264 273 273 275 281 283 283
88 91 94 97 99 100 105 109 110 106 103 87 43 290 262 266 270 278 288 297 289 280 285 274 275 272 275 278 273 278 284 286 282 267 251 251 260 269 273 280 287 291 291